Back to catalog

KUIPER-00265

AliveCommunicationsLEO
NORAD 67159·PAYLOAD·🇺🇸 United States

Launched Dec 15, 2025 from Cape Canaveral Space Force Station

Loading…

Next Passes (next 24 hours)

TLE

FreshSource: CelesTrak SupGP

Epoch: Sep 14, 2026, 17:34 UTC

1 67159C 25301AC  26257.73206019  .00005835  00000+0  76395-3 0  2579
2 67159  51.9027 329.7132 0000696 101.6441 137.6010 14.79920444    12

Track KUIPER-00265 in real time with AllMySat

Download on the App Store